QPF
0.00 0.00 0.00 0.00 0.00 0.00 0.00 0.00 0.00 0.00 0.00 0.00 0.00 0.00 0.00 0.00 0.00 0.00 0.00 0.00 0.00 0.00 0.00 0.00 0.00 0.00 0.00 0.00 0.00 0.00 0.00 0.00 0.00 0.00 0.00 0.00 0.00 0.00 0.00 0.00 0.00 0.00 0.00 0.00 0.00
0.00 0.00 0.00 0.00 0.00 0.00 0.00 0.00 0.00 0.00 0.00 0.00 0.00 0.00 0.00 0.00 0.00 0.00 0.00 0.00 0.00 0.00 0.00 0.00 0.00 0.00 0.00 0.00 0.00 0.00 0.00 0.00 0.00 0.00 0.00 0.00 0.00 0.00 0.00 0.00 0.00 0.00 0.00 0.00 0.00
0.00 0.00 0.00 0.00 0.00 0.00 0.00 0.00 0.00 0.00 0.00 0.00 0.00 0.00 0.00 0.00 0.00 0.00 0.00 0.00 0.00 0.00 0.00 0.00 0.00 0.00 0.00 0.00 0.00 0.00 0.00 0.00 0.00 0.00 0.00 0.00 0.00 0.00 0.00 0.00 0.00 0.00 0.00 0.00 0.00
0.00 0.00 0.00 0.00 0.00 0.00 0.00 0.00 0.00 0.00 0.00 0.00 0.00 0.00 0.00 0.00 0.00 0.00 0.00 0.00 0.00 0.00 0.00 0.00 0.00 0.00 0.00 0.00 0.00 0.00 0.00 0.00 0.00 0.00 0.00 0.00 0.00 0.00 0.00 0.00 0.00 0.00 0.00 0.00 0.00
0.00 0.00 0.00 0.00 0.00 0.00 0.00 0.00 0.00 0.00 0.00 0.00 0.00 0.00 0.00 0.00 0.00 0.00 0.00 0.00 0.00 0.00 0.00 0.00 0.00 0.00 0.00 0.00 0.00 0.00 0.00 0.00 0.00 0.00 0.00 0.00 0.00 0.00 0.00 0.00 0.00 0.00 0.00 0.00 0.00
0.00 0.00 0.00 0.00 0.00 0.00 0.00 0.00 0.00 0.00 0.00 0.00 0.00 0.00 0.00 0.00 0.00 0.00 0.00 0.00 0.00 0.00 0.00 0.00 0.00 0.00 0.00 0.00 0.00 0.00 0.00 0.00 0.00 0.00 0.00 0.00 0.00 0.00 0.00 0.00 0.00 0.00 0.00 0.00 0.00
0.00 0.00 0.00 0.00 0.00 0.00 0.00 0.00 0.00 0.00 0.00 0.00 0.00 0.00 0.00 0.00 0.00 0.00 0.00 0.00 0.00 0.00 0.00 0.00 0.00 0.00 0.00 0.00 0.00 0.00 0.00 0.00 0.00 0.00 0.00 0.00 0.00 0.00 0.00 0.00 0.00 0.00 0.00 0.00 0.00
0.00 0.00 0.00 0.00 0.00 0.00 0.00 0.00 0.00 0.00 0.00 0.00 0.00 0.00 0.00 0.00 0.00 0.00 0.00 0.00 0.00 0.00 0.00 0.00 0.00 0.00 0.00 0.00 0.00 0.00 0.00 0.00 0.00 0.00 0.00 0.00 0.00 0.00 0.00 0.00 0.00 0.00 0.00 0.00 0.00
0.00 0.00 0.00 0.00 0.00 0.00 0.00 0.00 0.00 0.00 0.00 0.00 0.00 0.00 0.00 0.00 0.00 0.00 0.00 0.00 0.00 0.00 0.00 0.00 0.00 0.00 0.00 0.00 0.00 0.00 0.00 0.00 0.00 0.00 0.00 0.00 0.00 0.00 0.00 0.00 0.00 0.00 0.00 0.00 0.00
0.00 0.00 0.00 0.00 0.00 0.00 0.00 0.00 0.00 0.00 0.00 0.00 0.00 0.00 0.00 0.00 0.00 0.00 0.00 0.00 0.00 0.00 0.00 0.00 0.00 0.00 0.00 0.00 0.00 0.00 0.00 0.00 0.00 0.00 0.00 0.00 0.00 0.00 0.00 0.00 0.00 0.00 0.00 0.00 0.00
0.00 0.00 0.00 0.00 0.00 0.00 0.00 0.00 0.00 0.00 0.00 0.00 0.00 0.00 0.00 0.00 0.00 0.00 0.00 0.00 0.00 0.00 0.00 0.00 0.00 0.00 0.00 0.00 0.00 0.00 0.00 0.00 0.00 0.00 0.00 0.00 0.00 0.00 0.00 0.00 0.00 0.00 0.00 0.00 0.00
0.00 0.00 0.00 0.00 0.00 0.00 0.00 0.00 0.00 0.00 0.00 0.00 0.00 0.00 0.00 0.00 0.00 0.00 0.00 0.00 0.00 0.00 0.00 0.00 0.00 0.00 0.00 0.00 0.00 0.00 0.00 0.00 0.00 0.00 0.00 0.00 0.00 0.00 0.00 0.00 0.00 0.00 0.00 0.00 0.00
0.00 0.00 0.00 0.00 0.00 0.00 0.00 0.00 0.00 0.00 0.00 0.00 0.00 0.00 0.00 0.00 0.00 0.00 0.00 0.00 0.00 0.00 0.00 0.00 0.00 0.00 0.00 0.00 0.00 0.00 0.00 0.00 0.00 0.00 0.00 0.00 0.00 0.00 0.00 0.00 0.00 0.00 0.00 0.00 0.00
0.00 0.00 0.00 0.00 0.00 0.00 0.00 0.00 0.00 0.00 0.00 0.00 0.00 0.00 0.00 0.00 0.00 0.00 0.00 0.00 0.00 0.00 0.00 0.00 0.00 0.00 0.00 0.00 0.00 0.00 0.00 0.00 0.00 0.00 0.00 0.00 0.00 0.00 0.00 0.00 0.00 0.00 0.00 0.00 0.00
0.00 0.00 0.00 0.00 0.00 0.00 0.00 0.00 0.00 0.00 0.00 0.00 0.00 0.00 0.00 0.00 0.00 0.00 0.00 0.00 0.00 0.00 0.00 0.00 0.00 0.00 0.00 0.00 0.00 0.00 0.00 0.00 0.00 0.00 0.00 0.00 0.00 0.00 0.00 0.00 0.00 0.00 0.00 0.00 0.00
0.00 0.00 0.00 0.00 0.00 0.00 0.00 0.00 0.00 0.00 0.00 0.00 0.00 0.00 0.00 0.00 0.00 0.00 0.00 0.00 0.00 0.00 0.00 0.00 0.00 0.00 0.00 0.00 0.00 0.00 0.00 0.00 0.00 0.00 0.00 0.00 0.00 0.00 0.00 0.00 0.00 0.00 0.00 0.00 0.00
0.00 0.00 0.00 0.00 0.00 0.00 0.00 0.00 0.00 0.00 0.00 0.00 0.00 0.00 0.00 0.00 0.00 0.00 0.00 0.00 0.00 0.00 0.00 0.00 0.00 0.00 0.00 0.00 0.00 0.00 0.00 0.00 0.00 0.00 0.00 0.00 0.00 0.00 0.00 0.00 0.00 0.00 0.00 0.00 0.00
0.00 0.00 0.00 0.00 0.00 0.00 0.00 0.00 0.00 0.00 0.00 0.00 0.00 0.00 0.00 0.00 0.00 0.00 0.00 0.00 0.00 0.00 0.00 0.00 0.00 0.00 0.00 0.00 0.00 0.00 0.00 0.00 0.00 0.00 0.00 0.00 0.00 0.00 0.00 0.00 0.00 0.00 0.00 0.00 0.00
0.00 0.00 0.00 0.00 0.00 0.00 0.00 0.00 0.00 0.00 0.00 0.00 0.00 0.00 0.00 0.00 0.00 0.00 0.00 0.00 0.00 0.00 0.00 0.00 0.00 0.00 0.00 0.00 0.00 0.00 0.00 0.00 0.00 0.00 0.00 0.00 0.00 0.00 0.00 0.00 0.00 0.00 0.00 0.00 0.00
0.00 0.00 0.00 0.00 0.00 0.00 0.00 0.00 0.00 0.00 0.00 0.00 0.00 0.00 0.00 0.00 0.00 0.00 0.00 0.00 0.00 0.00 0.00 0.00 0.00 0.00 0.00 0.00 0.00 0.00 0.00 0.00 0.00 0.00 0.00 0.00 0.00 0.00 0.00 0.00 0.00 0.00 0.00 0.00 0.00
0.00 0.00 0.00 0.00 0.00 0.00 0.00 0.00 0.00 0.00 0.00 0.00 0.00 0.00 0.00 0.00 0.00 0.00 0.00 0.00 0.00 0.00 0.00 0.00 0.00 0.00 0.00 0.00 0.00 0.00 0.00 0.00 0.00 0.00 0.00 0.00 0.00 0.00 0.00 0.00 0.00 0.00 0.00 0.00 0.00
0.00 0.00 0.00 0.00 0.00 0.00 0.00 0.00 0.00 0.00 0.00 0.00 0.00 0.00 0.00 0.00 0.00 0.00 0.00 0.00 0.00 0.00 0.00 0.00 0.00 0.00 0.00 0.00 0.00 0.00 0.00 0.00 0.00 0.00 0.00 0.00 0.00 0.00 0.00 0.00 0.00 0.00 0.00 0.00 0.00
0.00 0.00 0.00 0.00 0.00 0.00 0.00 0.00 0.00 0.01 0.01 0.03 0.02 0.00 0.00 0.00 0.00 0.00 0.00 0.00 0.00 0.00 0.00 0.00 0.00 0.00 0.00 0.00 0.00 0.00 0.00 0.00 0.00 0.00 0.00 0.00 0.00 0.00 0.00 0.00 0.00 0.00 0.00 0.00 0.00
0.00 0.00 0.00 0.00 0.00 0.00 0.00 0.00 0.00 0.00 0.01 0.02 0.04 0.01 0.00 0.00 0.00 0.00 0.00 0.00 0.00 0.00 0.00 0.00 0.00 0.00 0.00 0.00 0.00 0.00 0.00 0.00 0.00 0.00 0.00 0.00 0.00 0.00 0.00 0.00 0.00 0.00 0.00 0.00 0.00
0.00 0.00 0.00 0.00 0.00 0.00 0.00 0.00 0.00 0.00 0.00 0.01 0.12 0.12 0.05 0.00 0.00 0.00 0.00 0.00 0.00 0.00 0.00 0.00 0.00 0.00 0.00 0.00 0.00 0.00 0.00 0.00 0.00 0.00 0.00 0.00 0.00 0.00 0.00 0.00 0.00 0.00 0.00 0.00 0.00
0.00 0.01 0.01 0.00 0.00 0.00 0.01 0.01 0.01 0.00 0.00 0.01 0.04 0.02 0.04 0.07 0.01 0.00 0.00 0.00 0.00 0.00 0.00 0.00 0.00 0.00 0.00 0.00 0.00 0.00 0.00 0.00 0.00 0.00 0.00 0.00 0.00 0.00 0.00 0.00 0.00 0.00 0.00 0.00 0.00
0.01 0.02 0.03 0.01 0.00 0.01 0.01 0.01 0.01 0.01 0.01 0.01 0.03 0.00 0.00 0.04 0.01 0.00 0.00 0.00 0.00 0.00 0.00 0.00 0.00 0.00 0.00 0.00 0.00 0.00 0.00 0.00 0.00 0.00 0.00 0.00 0.00 0.00 0.00 0.00 0.00 0.00 0.00 0.00 0.00
MSLP
1019.14 1018.74 1018.31 1017.85 1017.37 1016.84 1016.30 1015.88 1015.44 1015.16 1014.80 1014.50 1014.10 1013.88 1013.60 1013.29 1012.56 1011.86 1009.43 1007.50 1007.82 1008.17 1008.26 1008.05 1008.12 1008.13 1008.23 1007.69 1007.51 1007.10 1004.75 1002.43 1002.15 1001.82 1002.33 1003.34 1003.82 1004.93 1005.62 1006.42 1007.05 1007.87 1008.14 1010.07 1011.54
1019.21 1018.75 1018.25 1017.74 1017.18 1016.67 1016.16 1015.66 1015.24 1014.81 1014.55 1014.24 1013.93 1013.53 1013.30 1012.95 1011.35 1008.91 1006.50 1006.92 1007.44 1007.79 1007.42 1007.21 1007.20 1007.48 1007.27 1006.76 1006.72 1005.95 1003.77 1002.21 1002.41 1002.36 1002.18 1002.76 1003.34 1004.58 1005.12 1006.06 1006.76 1007.80 1008.54 1010.36 1011.34
1019.27 1018.75 1018.20 1017.57 1016.96 1016.44 1015.95 1015.43 1014.88 1014.54 1014.12 1013.94 1013.66 1013.30 1013.00 1012.56 1009.77 1005.03 1005.14 1006.07 1006.94 1007.06 1006.45 1006.74 1006.79 1006.82 1006.13 1005.99 1005.84 1004.87 1003.26 1002.90 1002.68 1002.79 1002.35 1002.47 1003.16 1003.95 1004.51 1005.27 1006.09 1007.41 1008.79 1010.14 1011.15
1019.45 1018.82 1018.15 1017.48 1016.77 1016.13 1015.60 1015.01 1014.52 1014.04 1013.77 1013.51 1013.40 1013.16 1012.76 1011.62 1007.20 1004.68 1005.22 1005.78 1006.53 1006.41 1006.06 1006.19 1006.22 1005.92 1005.34 1005.19 1005.01 1004.48 1003.69 1003.14 1002.58 1002.77 1002.65 1002.55 1002.77 1003.29 1003.99 1004.34 1005.66 1007.31 1008.76 1009.78 1010.53
1019.53 1018.89 1018.17 1017.41 1016.59 1015.83 1015.11 1014.49 1013.79 1013.35 1013.08 1013.04 1012.99 1012.96 1012.32 1009.71 1005.69 1004.40 1005.54 1005.98 1006.35 1005.90 1005.37 1005.29 1005.35 1005.04 1004.38 1004.33 1004.47 1004.21 1003.22 1003.17 1002.82 1002.72 1002.60 1002.76 1002.76 1002.86 1003.57 1004.52 1005.46 1007.11 1008.54 1009.47 1010.23
1019.58 1018.91 1018.16 1017.29 1016.26 1015.46 1014.65 1013.90 1013.16 1012.35 1012.10 1012.18 1012.41 1012.66 1011.10 1007.63 1004.20 1004.41 1004.85 1005.45 1005.08 1004.94 1004.77 1004.78 1004.48 1004.50 1004.06 1003.83 1003.87 1003.10 1003.31 1002.86 1002.47 1002.19 1002.10 1002.27 1002.33 1002.72 1003.04 1004.36 1005.44 1006.75 1007.96 1008.90 1009.61
1019.38 1018.66 1017.85 1016.95 1015.81 1014.96 1014.13 1013.29 1012.38 1011.45 1010.85 1011.04 1011.67 1011.60 1009.58 1005.30 1004.42 1004.32 1004.53 1004.38 1004.36 1004.17 1003.88 1004.13 1004.28 1004.37 1003.87 1003.78 1003.65 1003.03 1003.01 1002.39 1002.04 1001.72 1001.58 1001.88 1001.68 1001.68 1002.38 1003.76 1005.09 1006.13 1007.22 1008.27 1009.05
1019.18 1018.38 1017.48 1016.61 1015.54 1014.55 1013.62 1012.72 1011.71 1010.74 1010.01 1010.49 1011.23 1010.75 1006.84 1004.17 1004.40 1004.36 1004.09 1004.00 1004.19 1004.17 1003.81 1004.14 1004.42 1004.14 1003.77 1003.44 1003.20 1002.82 1002.24 1001.07 1000.38 1000.65 1000.97 1001.42 1000.03 1000.56 1001.83 1003.01 1004.23 1005.36 1006.50 1007.51 1008.46
1019.13 1018.21 1017.22 1016.30 1015.18 1014.03 1013.08 1012.21 1011.45 1010.70 1010.46 1010.53 1010.56 1009.15 1004.96 1004.71 1004.03 1003.67 1003.75 1003.53 1003.76 1004.10 1004.13 1004.40 1004.66 1004.11 1003.76 1003.42 1002.36 1001.55 1000.22 999.94 999.64 1000.05 1000.03 1000.60 999.67 1000.29 1001.00 1002.44 1003.35 1004.58 1005.68 1006.63 1007.76
1019.03 1018.11 1016.99 1016.05 1014.96 1013.74 1012.59 1011.79 1011.39 1010.94 1010.56 1010.01 1009.32 1008.68 1004.48 1002.57 1002.37 1002.87 1003.35 1003.18 1003.46 1004.04 1004.48 1004.71 1004.55 1003.47 1002.82 1002.27 1000.27 1000.11 1000.08 999.29 999.02 999.40 999.62 999.53 999.52 999.51 1000.60 1001.70 1002.61 1003.96 1005.00 1005.92 1006.64
1019.03 1017.87 1016.94 1015.88 1014.82 1013.56 1012.03 1010.23 1010.40 1009.90 1008.75 1006.62 1005.19 1003.73 1002.73 1002.14 1002.45 1002.30 1002.83 1003.00 1003.31 1003.66 1002.79 1003.18 1002.89 1000.87 1001.00 1001.28 1000.94 1000.03 999.81 999.30 999.08 999.24 999.39 999.00 998.84 998.99 1000.08 1001.03 1001.73 1002.95 1003.98 1004.79 1005.46
1019.01 1017.93 1016.71 1015.72 1014.70 1013.49 1011.64 1010.99 1012.99 1013.53 1009.22 1005.93 1004.40 1003.52 1002.64 1002.81 1001.42 1001.49 1002.06 1001.73 1001.81 1001.58 1002.08 1002.35 1000.31 1000.77 1001.28 1001.14 1001.11 1000.71 1000.21 999.32 999.07 999.12 999.59 998.76 998.41 998.43 999.35 1000.18 1000.82 1001.74 1002.69 1003.61 1004.69
1019.04 1017.89 1016.65 1015.61 1014.47 1013.38 1012.69 1013.11 1013.38 1012.86 1009.65 1003.45 1002.38 1001.56 1001.53 1002.07 1000.60 1000.10 1000.69 1000.12 1000.16 1000.31 999.97 999.32 999.35 1000.35 1000.49 1000.57 1000.71 1000.40 999.82 999.43 999.16 999.26 999.28 998.96 998.22 998.17 998.69 999.49 1000.05 1000.71 1001.67 1002.65 1003.55
1019.00 1017.97 1016.96 1015.52 1014.30 1013.67 1012.66 1012.96 1013.05 1012.69 1008.60 1001.84 1001.01 1000.08 1000.18 1000.24 999.82 999.14 999.81 999.50 999.46 999.01 999.32 999.00 998.78 999.36 999.65 999.68 1000.09 999.35 999.98 999.98 999.56 999.33 998.49 998.24 997.00 996.57 997.13 998.12 998.91 999.54 1000.41 1001.19 1002.52
1018.84 1017.98 1016.99 1016.34 1015.07 1013.72 1013.91 1013.19 1013.03 1012.10 1006.04 1000.21 999.97 999.95 999.50 998.75 996.95 998.12 998.99 999.05 997.96 997.96 998.41 997.41 997.92 998.30 998.48 998.49 999.55 998.93 999.18 999.75 999.87 999.35 998.93 997.76 997.19 996.13 996.11 996.72 997.24 998.09 998.92 1000.11 1000.91
1018.59 1017.80 1016.98 1015.49 1014.33 1013.72 1013.53 1012.96 1012.42 1009.48 1002.81 999.59 999.56 999.32 999.14 998.68 997.51 997.19 998.12 998.73 998.37 997.79 997.49 997.18 997.36 997.54 997.52 998.50 998.86 999.43 999.52 999.45 999.70 999.11 997.36 996.78 996.45 995.04 994.84 995.66 996.10 996.78 997.74 998.81 999.90
1018.39 1017.48 1016.66 1015.54 1014.34 1013.83 1013.12 1011.76 1009.73 1005.62 1001.36 1000.85 1000.21 999.57 998.57 997.74 997.71 997.50 997.23 997.26 996.41 996.49 995.86 996.74 996.28 997.01 997.17 997.65 998.27 998.74 998.62 997.88 997.80 996.75 995.31 996.03 995.46 994.47 994.17 994.37 995.22 995.60 996.27 997.55 998.90
1018.23 1017.19 1016.23 1015.22 1014.24 1013.61 1012.40 1010.51 1007.79 1004.69 1004.45 1003.65 1002.56 1000.99 999.31 997.84 997.53 997.00 996.80 996.39 996.47 995.53 994.71 995.24 995.03 995.31 995.58 996.04 996.39 997.16 997.07 995.47 994.85 994.31 994.84 995.35 993.40 992.98 994.04 994.54 994.75 995.08 995.24 996.15 997.67
1017.66 1015.75 1014.87 1014.52 1014.06 1013.40 1011.49 1009.23 1007.55 1007.91 1007.96 1006.24 1003.43 1000.91 999.05 999.11 998.48 997.66 996.47 995.86 995.69 994.96 994.05 993.64 993.37 993.98 994.72 995.46 995.67 996.03 995.70 995.41 994.34 994.20 993.76 992.70 993.12 993.41 993.30 993.26 993.77 994.21 994.36 994.84 996.25
1017.29 1015.60 1014.40 1014.28 1013.72 1012.62 1010.64 1009.78 1009.56 1010.20 1009.64 1007.85 1005.31 1003.27 1001.38 1000.25 999.46 997.85 996.60 997.51 995.58 995.48 995.07 994.03 993.32 993.34 994.51 995.10 994.83 994.40 995.64 995.48 994.45 993.80 993.17 992.42 992.08 991.67 991.85 992.64 992.89 993.18 993.39 993.95 994.92
1016.87 1014.81 1014.59 1014.34 1013.18 1011.55 1010.99 1011.29 1011.34 1011.26 1010.63 1009.41 1007.07 1005.63 1003.85 1002.48 1001.05 999.08 998.50 999.47 998.66 996.67 997.06 995.87 993.98 992.79 993.50 992.79 992.80 994.05 993.83 994.23 994.15 993.49 992.29 991.81 990.74 990.82 991.38 991.90 992.26 992.51 992.85 993.13 994.02
1017.00 1014.57 1015.04 1014.41 1012.60 1012.63 1012.37 1012.98 1012.69 1011.44 1011.02 1010.07 1009.04 1007.66 1005.83 1004.37 1002.57 1001.00 1000.44 1000.75 1001.04 999.53 998.00 996.95 995.01 992.92 992.20 992.83 993.06 993.14 993.23 993.48 993.00 993.15 993.01 991.80 990.52 990.98 991.26 991.55 992.11 992.24 992.63 992.94 993.49
1017.25 1016.08 1015.36 1014.66 1013.43 1013.64 1014.02 1013.31 1012.80 1012.19 1012.00 1011.53 1010.52 1009.10 1008.12 1006.03 1004.37 1003.13 1002.49 1002.94 1002.22 1000.62 999.41 998.12 995.99 993.91 992.85 992.92 992.81 991.99 992.46 992.87 993.32 992.65 991.95 991.99 991.17 991.74 991.98 992.13 992.61 992.69 992.96 993.32 993.52
1018.01 1015.92 1014.97 1015.16 1015.43 1014.66 1014.27 1013.66 1013.06 1012.56 1012.54 1012.42 1013.08 1011.84 1009.59 1007.22 1005.76 1004.54 1003.61 1003.49 1003.10 1002.28 1001.70 1000.24 996.77 994.40 992.22 992.14 992.48 992.49 992.01 992.48 992.72 991.91 991.48 991.38 991.27 991.63 992.09 992.45 992.74 992.99 993.23 993.56 994.10
1018.47 1017.24 1017.76 1016.14 1015.70 1015.83 1015.41 1014.14 1013.38 1013.19 1013.23 1012.63 1013.55 1013.59 1012.53 1009.53 1006.94 1006.04 1005.32 1004.44 1003.41 1003.14 1001.69 1000.20 997.67 997.04 995.23 994.90 994.28 992.44 992.17 992.11 991.75 991.91 991.16 991.41 991.34 991.73 992.12 992.52 992.89 993.20 993.48 993.69 993.82
1019.06 1018.67 1018.56 1017.69 1017.46 1016.75 1015.54 1014.54 1013.80 1013.84 1013.84 1012.94 1013.48 1013.10 1012.47 1011.96 1011.13 1008.86 1007.33 1005.67 1004.27 1003.89 1002.78 1001.59 999.28 998.62 997.08 996.40 995.69 994.51 993.62 992.68 992.15 991.84 991.93 991.86 991.46 991.84 992.48 992.85 992.92 993.42 993.69 993.60 993.51
1019.67 1019.49 1019.44 1018.21 1017.30 1016.71 1015.79 1015.19 1014.82 1014.44 1013.60 1013.46 1013.15 1012.49 1011.66 1011.60 1011.41 1009.99 1008.61 1007.40 1006.36 1005.50 1004.11 1002.92 1000.83 999.77 997.41 996.68 996.15 994.69 993.73 993.53 993.30 992.81 992.66 991.93 992.76 993.11 992.95 993.32 993.49 993.48 993.39 993.30 993.28
Thickness
5721 5723 5726 5728 5731 5735 5738 5741 5743 5745 5748 5750 5752 5754 5756 5760 5767 5773 5784 5806 5808 5809 5808 5808 5806 5805 5805 5799 5803 5804 5794 5802 5808 5811 5812 5823 5811 5816 5818 5802 5804 5802 5802 5793 5789
5718 5720 5723 5727 5730 5733 5737 5740 5743 5745 5748 5750 5752 5755 5758 5760 5774 5787 5816 5812 5810 5808 5809 5802 5796 5801 5795 5800 5800 5794 5799 5811 5824 5825 5820 5824 5820 5811 5806 5799 5797 5795 5803 5793 5789
5714 5717 5720 5724 5729 5732 5736 5739 5743 5745 5747 5749 5751 5754 5756 5761 5778 5812 5824 5818 5812 5811 5815 5809 5806 5800 5796 5803 5800 5805 5802 5818 5822 5827 5833 5826 5819 5822 5807 5795 5803 5792 5791 5789 5784
5708 5712 5717 5721 5726 5730 5735 5739 5742 5745 5747 5749 5749 5751 5755 5764 5778 5818 5820 5817 5813 5814 5813 5806 5801 5794 5795 5790 5807 5794 5814 5819 5826 5828 5827 5821 5830 5818 5815 5814 5819 5807 5798 5792 5785
5702 5706 5712 5717 5723 5728 5734 5738 5743 5746 5749 5750 5749 5749 5756 5768 5792 5820 5812 5811 5809 5812 5808 5804 5796 5798 5794 5802 5805 5797 5814 5820 5827 5828 5828 5829 5820 5821 5817 5822 5823 5810 5798 5790 5788
5697 5701 5706 5713 5721 5727 5732 5737 5743 5750 5753 5752 5750 5747 5759 5763 5819 5817 5815 5809 5811 5810 5808 5807 5803 5808 5801 5803 5800 5817 5813 5818 5827 5828 5830 5820 5822 5825 5826 5827 5816 5807 5797 5794 5791
5692 5697 5703 5710 5719 5726 5732 5737 5744 5751 5757 5755 5751 5751 5759 5786 5811 5813 5812 5810 5814 5812 5806 5812 5811 5800 5805 5793 5811 5815 5798 5815 5821 5828 5825 5830 5814 5817 5835 5829 5813 5807 5802 5797 5794
5687 5692 5698 5705 5713 5721 5729 5736 5744 5751 5757 5754 5748 5751 5771 5807 5807 5806 5809 5807 5811 5812 5811 5813 5810 5802 5799 5808 5802 5795 5805 5798 5831 5834 5832 5825 5810 5836 5841 5828 5815 5812 5805 5800 5796
5679 5684 5691 5698 5708 5717 5725 5732 5738 5743 5746 5747 5747 5754 5778 5797 5796 5806 5806 5798 5802 5803 5805 5806 5798 5790 5794 5780 5785 5798 5795 5805 5817 5837 5833 5822 5818 5836 5846 5830 5820 5815 5809 5804 5799
5669 5675 5682 5690 5698 5709 5719 5726 5729 5733 5737 5742 5747 5743 5781 5792 5803 5803 5804 5803 5792 5788 5781 5778 5777 5778 5785 5780 5773 5787 5791 5810 5811 5828 5829 5823 5822 5841 5841 5832 5825 5816 5812 5807 5805
5658 5665 5670 5677 5687 5699 5712 5728 5733 5735 5740 5760 5773 5779 5785 5799 5800 5795 5797 5791 5788 5779 5772 5780 5768 5777 5789 5793 5799 5806 5802 5803 5820 5831 5822 5823 5827 5836 5837 5834 5829 5822 5817 5814 5813
5645 5652 5659 5666 5673 5684 5701 5703 5687 5683 5717 5750 5761 5770 5781 5782 5782 5788 5796 5782 5780 5772 5778 5769 5776 5790 5791 5792 5787 5789 5787 5800 5817 5827 5817 5823 5824 5840 5839 5834 5836 5829 5825 5820 5817
5631 5638 5646 5652 5660 5668 5673 5670 5670 5677 5698 5757 5765 5771 5771 5773 5776 5785 5791 5792 5782 5773 5781 5782 5790 5792 5786 5781 5774 5781 5787 5796 5800 5812 5819 5814 5812 5825 5838 5839 5840 5841 5837 5831 5824
5616 5620 5627 5637 5649 5649 5654 5656 5657 5662 5691 5755 5754 5766 5772 5774 5766 5796 5794 5789 5779 5776 5782 5783 5799 5785 5781 5777 5780 5775 5796 5793 5793 5789 5780 5822 5790 5829 5841 5834 5837 5842 5840 5839 5831
5596 5599 5604 5609 5620 5628 5627 5634 5639 5648 5688 5744 5747 5766 5768 5766 5793 5780 5795 5781 5777 5780 5781 5785 5786 5785 5779 5788 5788 5786 5803 5788 5787 5783 5787 5797 5789 5817 5842 5828 5839 5846 5848 5845 5846
5568 5573 5580 5590 5599 5606 5609 5616 5623 5645 5675 5722 5732 5735 5739 5751 5766 5778 5773 5779 5782 5775 5782 5786 5803 5793 5794 5790 5792 5791 5782 5783 5781 5782 5763 5798 5798 5813 5830 5835 5847 5855 5853 5851 5850
5543 5545 5548 5553 5567 5575 5586 5601 5618 5645 5700 5687 5695 5715 5730 5738 5742 5750 5753 5753 5758 5749 5759 5773 5783 5792 5796 5777 5786 5780 5769 5754 5748 5757 5763 5810 5798 5817 5843 5859 5857 5857 5861 5859 5855
5532 5532 5528 5527 5532 5542 5557 5577 5592 5638 5626 5651 5663 5684 5698 5726 5729 5739 5740 5743 5757 5769 5770 5754 5754 5786 5802 5790 5781 5776 5779 5773 5746 5769 5779 5803 5792 5825 5852 5860 5864 5866 5870 5868 5859
5528 5529 5524 5516 5514 5519 5535 5551 5573 5561 5577 5603 5641 5664 5690 5695 5704 5716 5732 5743 5754 5771 5761 5763 5770 5801 5800 5800 5797 5778 5769 5810 5795 5800 5788 5815 5818 5836 5851 5856 5861 5862 5869 5870 5867
5525 5522 5515 5506 5505 5512 5523 5517 5526 5528 5545 5571 5595 5624 5636 5659 5676 5702 5722 5714 5743 5760 5770 5768 5758 5787 5787 5794 5798 5794 5799 5766 5784 5753 5756 5797 5806 5815 5839 5842 5857 5861 5869 5875 5877
5520 5518 5504 5495 5501 5508 5502 5496 5496 5502 5514 5529 5557 5578 5604 5623 5646 5676 5684 5683 5702 5729 5729 5749 5764 5772 5780 5782 5783 5778 5778 5783 5792 5793 5780 5781 5812 5853 5847 5853 5856 5865 5874 5881 5881
5509 5514 5495 5488 5493 5489 5485 5473 5471 5486 5495 5510 5527 5548 5574 5595 5619 5643 5652 5658 5671 5694 5709 5736 5749 5752 5770 5789 5798 5794 5787 5790 5773 5769 5788 5801 5819 5855 5858 5861 5860 5865 5872 5881 5885
5499 5495 5490 5483 5480 5473 5465 5467 5470 5472 5473 5481 5496 5520 5540 5569 5589 5610 5624 5634 5651 5672 5687 5712 5728 5730 5747 5766 5780 5782 5791 5792 5791 5802 5785 5779 5803 5845 5848 5849 5852 5855 5860 5866 5874
5486 5490 5486 5475 5464 5464 5461 5462 5463 5468 5464 5467 5452 5478 5512 5549 5570 5583 5601 5615 5631 5645 5656 5676 5718 5734 5748 5762 5772 5761 5782 5786 5784 5784 5791 5796 5809 5826 5834 5837 5844 5850 5857 5859 5860
5477 5476 5456 5463 5458 5448 5447 5458 5459 5455 5456 5463 5444 5439 5453 5514 5549 5560 5571 5593 5616 5626 5649 5668 5690 5699 5728 5724 5733 5763 5773 5781 5778 5792 5787 5803 5807 5820 5831 5835 5840 5846 5849 5851 5856
5466 5457 5448 5449 5436 5434 5443 5449 5453 5448 5446 5454 5439 5453 5459 5454 5470 5506 5536 5565 5584 5604 5620 5644 5662 5674 5688 5709 5716 5723 5745 5764 5776 5792 5793 5803 5804 5831 5833 5838 5838 5839 5841 5844 5854
5456 5448 5435 5440 5441 5436 5437 5439 5437 5439 5447 5446 5446 5456 5465 5465 5469 5493 5518 5540 5559 5572 5591 5611 5638 5653 5678 5701 5701 5700 5734 5748 5756 5774 5780 5783 5795 5814 5817 5822 5827 5833 5841 5844 5852